Wind_Speed
15 16 16 15 13 14 16 18 18 20 23 27 30 30 31 32 32 34 38 40 41 42 44 46 48 51 55 55 53 52 52 51 49 46 44 42 43 43 44 44 43 42 41 41
15 16 16 15 16 17 19 20 22 24 28 30 32 32 35 37 37 38 41 44 45 47 49 51 51 53 56 54 51 51 49 47 45 43 41 41 40 40 40 39 37 37 37 38
16 15 15 15 17 19 21 23 26 28 30 34 37 36 40 41 43 44 47 49 50 52 52 52 50 51 54 51 50 50 50 45 41 40 38 37 36 36 34 33 34 35 37 39
14 14 14 15 19 22 23 27 29 31 34 37 41 44 44 45 46 48 49 51 53 55 55 54 49 50 49 49 52 54 53 50 46 41 36 35 34 34 34 33 34 36 38 41
14 13 15 18 23 25 28 30 32 34 38 42 45 49 50 52 53 54 55 57 58 59 59 53 49 51 51 52 53 52 48 47 46 41 35 34 34 34 34 34 35 38 42 46
15 16 19 24 27 31 34 37 38 41 45 48 51 55 54 54 57 58 59 59 59 57 53 48 50 53 51 50 50 46 44 46 42 34 32 33 33 32 32 34 37 41 45 48
20 23 27 30 34 37 40 43 46 49 52 54 57 61 60 60 60 59 58 56 54 51 45 41 46 48 48 47 46 45 48 49 42 33 33 33 31 31 32 37 40 42 43 47
27 31 34 37 41 44 47 49 51 55 58 59 61 64 63 62 58 54 51 48 46 45 40 36 41 45 47 49 48 50 55 51 35 32 33 31 31 32 34 40 40 41 43 46
36 39 40 44 47 50 53 55 57 59 62 64 66 66 66 64 55 48 43 41 42 41 39 39 41 44 47 51 51 56 58 39 33 33 33 32 32 32 37 39 39 42 42 38
42 46 47 49 51 52 56 58 59 59 63 68 68 67 64 61 53 46 42 42 41 41 41 42 44 47 49 53 53 57 48 36 34 33 31 32 32 34 37 37 40 43 39 36
49 51 53 54 55 56 57 58 59 61 63 64 67 67 64 58 52 48 43 41 41 42 42 43 46 50 52 53 50 54 47 37 36 32 32 32 32 35 36 37 40 39 36 35
54 57 59 59 59 60 61 62 61 60 63 65 63 68 61 55 52 49 47 46 46 45 42 41 44 48 49 46 44 46 41 38 34 32 33 34 34 35 34 36 38 36 35 36
59 61 63 63 63 63 63 62 66 65 64 64 61 64 55 52 49 49 49 51 50 46 44 38 39 43 40 35 33 33 34 34 33 34 35 35 35 34 33 35 36 35 35 35
63 63 63 65 67 65 65 67 70 67 68 66 63 60 54 53 52 48 45 46 46 43 39 37 35 34 32 32 33 33 35 35 33 33 33 35 35 33 34 35 36 36 36 34
61 61 61 65 66 66 69 71 69 67 67 68 68 61 55 55 52 48 44 42 41 42 40 40 39 36 34 36 37 38 40 36 34 34 35 35 36 35 36 36 37 38 36 34
60 61 63 64 65 69 73 69 66 66 66 66 64 59 57 54 51 46 43 41 39 41 43 39 37 36 35 36 37 39 39 36 36 35 35 36 36 36 37 38 38 39 37 36
64 67 70 70 68 73 74 69 66 64 63 63 62 61 56 54 51 49 47 42 37 38 40 38 37 37 37 37 37 38 37 36 35 36 38 36 36 37 38 39 40 41 39 37
66 67 68 69 70 72 70 62 57 58 60 60 62 61 57 52 45 47 49 44 38 36 36 36 37 36 36 33 32 34 34 35 35 38 39 38 38 38 39 41 42 43 40 37
64 64 64 64 66 71 65 53 52 55 55 52 55 57 57 61 54 49 43 42 41 34 34 38 39 38 30 25 28 33 34 31 33 37 39 39 39 39 41 43 44 43 39 37
65 65 63 61 62 65 56 46 47 52 52 45 48 49 50 54 56 51 41 27 28 29 34 36 36 31 27 31 34 38 41 39 37 37 39 40 40 41 42 44 45 42 38 37
62 61 59 58 60 62 56 50 49 50 48 43 42 43 44 44 42 39 41 43 34 31 33 35 31 26 28 32 37 40 41 39 37 38 40 41 43 43 43 44 43 40 39 37
60 56 57 60 62 58 54 53 52 52 49 47 43 43 43 40 38 37 37 42 49 44 34 31 25 25 30 34 35 36 38 37 37 38 42 45 45 44 44 42 41 39 39 38
52 50 55 58 57 52 48 48 48 48 49 46 43 41 44 41 37 34 31 29 29 40 45 39 26 24 30 34 34 36 39 40 41 42 45 46 44 42 41 40 40 39 38 39
45 49 52 53 46 45 46 47 50 51 52 50 49 46 44 43 39 36 37 35 30 31 33 38 37 33 32 31 32 35 37 37 39 44 45 43 41 39 38 39 38 38 38 39
42 48 49 46 40 37 40 49 55 59 57 54 51 47 48 50 44 40 38 38 39 38 31 33 38 35 31 29 33 40 39 38 42 44 42 41 38 37 37 38 38 39 39 40
42 46 45 40 43 38 39 51 59 58 48 41 43 43 41 41 42 39 37 41 41 36 29 28 32 34 33 32 37 41 41 42 43 41 40 38 36 36 37 38 38 40 42 42
Wind_Direction
286 284 283 285 288 291 295 298 303 306 308 314 314 314 312 311 310 309 309 309 308 306 304 301 297 295 292 290 290 288 287 285 283 281 277 274 272 272 270 267 264 263 265 267
275 276 275 276 287 298 303 305 307 308 306 305 305 311 308 306 304 300 300 300 298 298 299 300 299 295 291 289 287 286 284 282 279 276 273 272 270 267 265 264 265 266 268 270
275 271 275 284 295 303 308 308 307 304 301 301 303 309 307 303 301 301 298 297 296 297 297 298 298 292 290 288 286 285 282 278 274 271 269 266 264 262 262 264 267 269 273 276
276 277 283 292 298 302 307 307 307 306 305 304 306 307 309 303 300 297 298 300 302 300 296 296 293 288 286 283 284 285 282 275 270 265 264 266 267 264 265 269 272 275 278 281
275 287 293 297 299 300 303 301 302 302 302 303 303 303 307 302 297 295 296 298 297 295 294 292 287 284 283 283 284 284 283 277 272 267 266 266 265 269 274 278 281 284 288 289
281 290 298 303 302 301 301 300 299 300 300 300 300 300 304 301 296 296 297 298 298 296 293 289 284 284 286 286 283 278 275 274 270 262 263 263 266 272 278 283 287 288 289 287
292 297 302 303 303 303 303 301 300 300 300 302 302 303 307 303 303 303 301 300 297 292 288 284 280 281 284 283 280 275 270 268 265 254 260 264 268 275 280 284 287 286 286 286
297 299 300 301 303 304 304 303 302 302 302 300 300 302 303 304 305 304 300 296 292 289 286 281 280 281 280 279 281 277 275 272 257 260 264 264 270 275 282 287 287 287 288 286
303 303 302 301 302 305 305 303 302 302 300 299 301 301 304 307 308 304 298 292 289 287 285 281 278 278 277 277 280 281 286 272 264 263 262 266 271 276 284 286 286 288 288 283
300 302 302 300 301 304 304 304 305 304 303 302 301 302 307 308 307 303 300 293 286 284 283 280 276 275 275 276 278 281 283 278 269 261 260 268 270 277 285 286 290 293 290 285
301 302 303 302 304 304 304 304 304 303 303 303 303 303 306 307 303 301 298 291 286 283 283 279 278 276 274 275 277 280 280 273 264 258 261 266 272 283 289 292 294 291 288 288
302 301 301 303 304 304 305 307 307 306 304 302 300 302 304 299 297 295 290 284 282 278 279 282 282 279 277 277 280 280 271 264 262 262 266 269 275 282 288 295 296 292 290 290
301 302 302 302 303 304 307 308 306 304 303 301 297 297 298 294 294 289 284 281 283 280 278 282 282 276 271 275 273 265 262 261 262 264 265 267 273 280 288 297 300 294 293 293
303 304 306 305 304 305 305 306 304 304 303 301 296 296 295 293 290 287 284 283 284 280 272 269 277 274 274 274 264 264 263 259 262 266 268 270 275 282 288 294 304 296 291 293
305 305 304 304 306 306 305 304 303 299 296 294 295 295 294 292 290 288 286 285 283 277 269 269 276 280 273 263 261 261 261 263 267 269 270 275 277 281 287 293 300 302 290 289
305 308 306 306 308 307 306 305 298 294 294 291 290 290 289 288 286 284 284 289 293 287 275 273 266 270 271 269 266 264 266 266 266 270 273 278 281 284 287 292 296 302 292 286
309 309 308 309 308 307 305 303 299 297 295 293 290 289 285 282 281 280 279 280 286 290 291 278 268 272 273 273 276 277 276 271 274 277 278 283 286 286 287 292 296 298 291 283
310 310 310 309 308 305 306 303 299 295 296 296 293 290 280 277 280 283 284 279 281 279 279 276 269 271 272 278 284 283 277 275 277 280 283 285 287 287 289 291 294 294 288 281
313 311 309 307 305 304 307 304 300 299 300 300 296 295 286 279 276 284 285 275 275 274 274 274 270 265 269 277 285 288 280 278 277 280 284 286 288 288 289 291 291 290 285 281
313 311 308 306 302 302 309 306 304 304 306 303 299 301 298 292 284 278 269 256 242 249 260 260 258 255 262 270 280 285 285 278 276 282 287 288 288 288 290 290 290 287 282 279
310 307 305 303 301 304 311 310 308 306 307 302 301 303 301 298 296 290 279 267 264 254 244 249 249 258 271 276 281 282 281 277 276 283 289 290 288 289 290 290 288 283 279 277
309 308 304 302 305 313 316 313 313 309 306 302 297 295 296 295 291 289 288 288 283 282 271 259 256 266 276 283 288 287 281 277 280 284 287 290 289 289 289 288 284 280 277 277
306 305 302 304 312 315 313 316 319 312 304 299 292 290 286 284 286 288 293 294 295 286 280 273 273 273 273 283 291 290 283 277 281 286 288 290 289 289 287 285 282 279 278 279
306 301 304 309 315 316 318 321 316 310 305 298 292 287 281 277 276 276 282 288 294 292 281 269 264 278 280 286 293 297 294 286 282 284 288 291 291 288 285 283 280 280 280 280
307 308 312 317 321 324 326 320 314 310 306 297 287 275 265 265 268 271 274 277 283 285 272 259 259 268 275 285 291 295 294 289 287 288 291 293 290 285 283 282 281 282 282 281
307 312 319 322 321 327 332 324 320 320 317 311 299 284 270 265 262 264 271 277 279 277 264 242 243 256 277 286 287 293 296 294 293 293 294 291 286 282 282 284 285 285 285 283
Height
5810 5809 5807 5805 5804 5803 5800 5798 5797 5796 5792 5789 5786 5785 5782 5779 5776 5772 5768 5765 5762 5758 5755 5751 5748 5742 5736 5732 5730 5727 5724 5722 5719 5717 5714 5713 5711 5710 5709 5708 5708 5707 5706 5705
5807 5805 5803 5801 5799 5798 5796 5794 5791 5789 5785 5783 5781 5779 5776 5772 5768 5763 5758 5754 5749 5746 5743 5739 5735 5729 5722 5721 5718 5714 5711 5709 5706 5704 5703 5701 5700 5699 5698 5697 5696 5695 5695 5694
5803 5802 5799 5797 5795 5793 5789 5787 5784 5782 5779 5775 5773 5773 5769 5765 5760 5754 5747 5742 5738 5734 5730 5725 5721 5715 5710 5708 5706 5702 5699 5696 5694 5692 5691 5690 5689 5689 5688 5687 5686 5685 5683 5680
5797 5795 5794 5791 5788 5785 5783 5780 5777 5773 5769 5766 5762 5760 5760 5754 5749 5742 5736 5730 5724 5719 5715 5711 5707 5701 5698 5696 5694 5689 5686 5683 5681 5679 5678 5677 5678 5677 5677 5676 5674 5673 5671 5669
5791 5791 5788 5786 5782 5778 5775 5772 5769 5765 5760 5756 5752 5748 5749 5741 5735 5729 5723 5718 5712 5707 5702 5698 5692 5688 5684 5681 5678 5674 5671 5669 5668 5667 5667 5666 5667 5666 5665 5664 5662 5660 5657 5654
5787 5785 5782 5778 5775 5771 5767 5764 5761 5756 5751 5746 5740 5735 5735 5729 5720 5715 5709 5703 5696 5690 5687 5683 5678 5673 5670 5667 5664 5661 5659 5656 5655 5655 5656 5656 5656 5656 5655 5653 5651 5648 5644 5641
5782 5779 5775 5771 5767 5764 5759 5753 5748 5744 5739 5734 5725 5719 5719 5711 5703 5699 5694 5687 5682 5677 5673 5670 5664 5660 5658 5654 5651 5649 5648 5645 5644 5644 5644 5645 5645 5645 5644 5643 5640 5637 5632 5628
5777 5775 5770 5765 5760 5755 5748 5741 5734 5728 5723 5721 5714 5707 5704 5698 5692 5685 5679 5674 5668 5663 5660 5658 5654 5650 5647 5641 5639 5638 5634 5634 5632 5632 5632 5633 5634 5634 5633 5631 5628 5624 5620 5615
5766 5764 5760 5755 5749 5744 5736 5727 5719 5712 5706 5702 5700 5696 5691 5683 5675 5669 5665 5660 5655 5650 5647 5645 5642 5638 5635 5630 5628 5626 5624 5623 5622 5622 5622 5623 5623 5623 5622 5619 5616 5612 5606 5600
5756 5754 5751 5746 5741 5734 5724 5714 5705 5695 5686 5681 5681 5679 5679 5666 5659 5653 5650 5646 5641 5638 5633 5630 5628 5625 5622 5618 5616 5614 5613 5613 5611 5611 5611 5612 5613 5613 5611 5606 5601 5596 5591 5587
5744 5742 5739 5734 5729 5722 5712 5702 5690 5681 5673 5663 5658 5665 5663 5652 5643 5640 5635 5628 5624 5620 5618 5616 5613 5609 5607 5604 5602 5601 5603 5602 5601 5601 5601 5602 5602 5600 5597 5592 5588 5583 5578 5574
5733 5730 5726 5723 5717 5708 5700 5689 5676 5664 5658 5650 5638 5645 5646 5636 5628 5625 5619 5613 5609 5607 5606 5603 5599 5596 5594 5593 5592 5590 5590 5591 5592 5591 5590 5589 5588 5587 5584 5580 5576 5570 5567 5563
5719 5716 5711 5709 5705 5698 5688 5677 5662 5648 5641 5634 5624 5624 5629 5619 5614 5608 5604 5598 5596 5595 5593 5590 5586 5582 5583 5583 5582 5580 5578 5579 5580 5579 5578 5577 5576 5575 5572 5569 5563 5558 5555 5551
5704 5701 5698 5691 5684 5681 5676 5664 5650 5635 5624 5614 5609 5605 5608 5605 5597 5593 5591 5587 5583 5581 5580 5579 5575 5572 5572 5572 5570 5569 5568 5567 5568 5567 5566 5565 5564 5562 5560 5557 5552 5548 5544 5540
5689 5687 5684 5675 5667 5665 5659 5649 5638 5624 5612 5599 5595 5593 5591 5585 5583 5579 5576 5572 5570 5568 5566 5566 5564 5563 5562 5561 5558 5557 5557 5557 5556 5556 5555 5553 5551 5550 5548 5545 5541 5537 5533 5529
5676 5671 5665 5669 5653 5645 5639 5633 5620 5608 5602 5592 5585 5580 5574 5570 5566 5564 5563 5559 5557 5556 5555 5554 5553 5552 5550 5549 5548 5547 5546 5546 5546 5545 5544 5542 5539 5537 5535 5533 5529 5525 5521 5518
5661 5651 5642 5644 5638 5630 5620 5611 5597 5589 5581 5575 5567 5562 5556 5553 5550 5548 5547 5547 5545 5542 5541 5541 5540 5539 5537 5537 5538 5538 5536 5535 5534 5533 5532 5530 5527 5525 5523 5521 5517 5513 5509 5505
5648 5635 5623 5616 5613 5609 5605 5592 5578 5568 5563 5558 5551 5545 5540 5536 5537 5536 5533 5533 5533 5531 5529 5528 5528 5527 5526 5526 5526 5526 5525 5523 5522 5521 5520 5518 5516 5514 5511 5508 5504 5500 5496 5492
5631 5620 5609 5598 5588 5581 5582 5573 5563 5554 5553 5549 5540 5533 5528 5523 5526 5526 5522 5521 5520 5519 5517 5517 5516 5517 5518 5516 5515 5514 5513 5512 5510 5509 5508 5506 5504 5501 5498 5495 5492 5488 5484 5480
5614 5604 5595 5583 5569 5561 5567 5559 5549 5540 5537 5533 5524 5520 5515 5510 5510 5514 5512 5509 5507 5505 5505 5505 5506 5506 5506 5505 5505 5503 5502 5501 5499 5498 5496 5494 5491 5488 5485 5482 5478 5475 5471 5468
5603 5592 5583 5570 5557 5553 5552 5544 5536 5528 5525 5519 5513 5507 5502 5498 5497 5497 5496 5495 5494 5494 5495 5495 5495 5496 5495 5495 5494 5493 5491 5490 5488 5486 5484 5480 5478 5475 5471 5468 5465 5462 5458 5456
5587 5577 5568 5557 5550 5548 5541 5530 5523 5515 5510 5505 5501 5496 5489 5485 5483 5483 5483 5481 5480 5480 5481 5485 5485 5485 5485 5485 5483 5481 5480 5478 5477 5474 5470 5467 5464 5461 5457 5454 5452 5449 5446 5444
5577 5566 5557 5548 5544 5537 5530 5519 5513 5503 5493 5488 5483 5481 5475 5472 5471 5470 5469 5469 5468 5467 5469 5472 5475 5475 5476 5475 5472 5470 5468 5466 5464 5461 5458 5454 5451 5447 5444 5442 5439 5436 5434 5432
5565 5554 5547 5541 5537 5524 5516 5510 5501 5491 5480 5472 5467 5464 5461 5458 5457 5459 5459 5459 5459 5457 5458 5460 5464 5466 5466 5465 5462 5460 5456 5453 5451 5449 5446 5441 5437 5434 5432 5429 5427 5424 5421 5419
5551 5542 5536 5528 5522 5516 5508 5498 5487 5474 5462 5451 5444 5440 5439 5441 5441 5444 5447 5449 5448 5448 5448 5450 5454 5457 5456 5455 5453 5451 5447 5444 5441 5437 5433 5428 5424 5422 5420 5417 5414 5411 5409 5406
5541 5534 5526 5519 5511 5504 5497 5488 5473 5456 5443 5434 5425 5420 5421 5423 5426 5430 5435 5437 5435 5434 5434 5437 5442 5446 5445 5445 5444 5441 5437 5433 5429 5424 5420 5416 5413 5411 5408 5404 5402 5399 5395 5392